Location: Bosmont
(49.7318°N, 3.8587°E)
Time: 09:06:37
(UTC+00:00)

Cosmos 2237 Rocket - Pass Details

Date: 08 February 2023
Orbit: 835 x 849 km, 71.0° (Epoch: 23 March)

Event Time Altitude Azimuth Distance (km) Brightness Sun altitude
Rises 18:40:21 0° 175° (S) 3,395 5.3 -18.0°
Reaches altitude 10° 18:43:02 10° 165° (SSE) 2,466 4.5 -18.4°
Enters shadow 18:47:23 31° 116° (ESE) 1,460 2.9 -19.1°
